Location: Mapua
(41.2500°S, 173.1000°E)
Time: 23:24:48
(UTC+13:00)

Hubble Space Telescope - Visible Passes

Search period start: 16 November 2018 00:00
Search period end: 26 November 2018 00:00
Orbit: 537 x 540 km, 28.5° (Epoch: 15 November)

Date Brightness Start Highest point End Pass type
(mag) Time Alt. Az. Time Alt. Az. Time Alt. Az.
16 Nov 2.7 04:54:47 12° NNW 04:56:08 14° N 04:58:19 10° NNE visible
17 Nov 2.7 04:44:57 13° NNW 04:45:35 14° N 04:47:42 10° NNE visible
18 Nov 2.8 04:35:13 13° N 04:35:13 13° N 04:36:58 10° NNE visible
19 Nov 3.0 04:25:37 11° N 04:25:37 11° N 04:26:08 10° NNE visible
